Hagerstown, MD

10:08 PM EDT on October 13, 2019 (GMT -0400)
Hagerstown Regional-Henson

Weather History for KHGR - September, 2019

Change the Weather History Date:

Friday, September 20, 2019

  Actual Average Record
Temperature  
Mean Temperature 66 °F 64 °F  
Max Temperature 80 °F 74 °F 87 °F (2016)
Min Temperature 51 °F 55 °F 44 °F (2004)
Degree Days  
Heating Degree Days 0 3  
Month to date heating degree days 1 24  
Since 1 July heating degree days 1 29  
Cooling Degree Days 1 2  
Month to date cooling degree days 155 78  
Year to date cooling degree days 1364 946  
Growing Degree Days 16 (Base 50)    
Moisture  
Dew Point 47 °F    
Average Humidity 56    
Maximum Humidity 77    
Minimum Humidity 35    
Precipitation  
Precipitation 0.00 in 0.14 in 0.65 in (2001)
Month to date precipitation 0.39 2.28  
Year to date precipitation 28.76 28.91  
Sea Level Pressure  
Sea Level Pressure 30.28 in    
Wind  
Wind Speed 5 mph (SSE)    
Max Wind Speed 10 mph    
Max Gust Speed 14 mph    
Visibility 10 miles    
Events      
T = Trace of Precipitation, MM = Missing Value Source: NWS Daily Summary

Daily Weather History Graph

Daily Weather History Graph

Search for Another Location

Airport or City:

Astronomy

Sep. 20, 2019 Rise Set
Actual Time 6:56 AM EDT 7:11 PM EDT
Civil Twilight 6:29 AM EDT 7:38 PM EDT
Nautical Twilight 5:57 AM EDT 8:10 PM EDT
Astronomical Twilight 5:25 AM EDT 8:42 PM EDT
Moon 11:00 PM EDT (9/20) 12:58 PM EDT (9/20)
Length of Visible Light 13h 09m
Length of Day
12h 15m
Waning Gibbous, 65% of the Moon is Illuminated
Sep 20
Waning Gibbous
Sep 21
Last Quarter
Sep 28
New
Oct 5
First Quarter
Oct 13
Full

Hourly Weather History & Observations

Time (EDT) Temp. Dew Point Humidity Pressure Visibility Wind Dir Wind Speed Gust Speed Precip Events Conditions
12:53 AM 57.0 °F 42.1 °F 57% 30.31 in 10.0 mi South 4.6 mph - N/A   Clear
1:53 AM 55.9 °F 43.0 °F 62% 30.30 in 10.0 mi South 5.8 mph - N/A   Clear
2:53 AM 53.1 °F 43.0 °F 69% 30.30 in 10.0 mi SE 4.6 mph - N/A   Clear
3:53 AM 54.0 °F 43.0 °F 66% 30.30 in 10.0 mi ESE 4.6 mph - N/A   Clear
4:53 AM 53.1 °F 43.0 °F 69% 30.30 in 10.0 mi Calm Calm - N/A   Clear
5:53 AM 52.0 °F 44.1 °F 74% 30.31 in 10.0 mi Calm Calm - N/A   Clear
6:53 AM 52.0 °F 44.1 °F 74% 30.32 in 10.0 mi Calm Calm - N/A   Clear
7:53 AM 53.1 °F 45.0 °F 74% 30.34 in 10.0 mi Calm Calm - N/A   Clear
8:53 AM 57.0 °F 46.9 °F 69% 30.35 in 10.0 mi SSE 9.2 mph - N/A   Clear
9:53 AM 63.0 °F 48.0 °F 58% 30.34 in 10.0 mi SSW 6.9 mph - N/A   Clear
10:53 AM 66.0 °F 46.9 °F 50% 30.33 in 10.0 mi SSW 5.8 mph - N/A   Clear
11:53 AM 68.0 °F 48.0 °F 49% 30.31 in 10.0 mi SW 9.2 mph - N/A   Clear
12:53 PM 72.0 °F 48.0 °F 43% 30.29 in 10.0 mi South 6.9 mph - N/A   Clear
1:53 PM 75.0 °F 48.0 °F 38% 30.26 in 10.0 mi SSE 3.5 mph - N/A   Clear
2:53 PM 78.1 °F 48.9 °F 36% 30.23 in 10.0 mi SE 5.8 mph - N/A   Clear
3:53 PM 79.0 °F 48.0 °F 34% 30.22 in 10.0 mi WNW 4.6 mph - N/A   Clear
4:53 PM 79.0 °F 48.9 °F 35% 30.21 in 10.0 mi SSE 8.1 mph - N/A   Clear
5:53 PM 79.0 °F 48.0 °F 34% 30.22 in 10.0 mi South 6.9 mph - N/A   Clear
6:53 PM 75.9 °F 50.0 °F 40% 30.22 in 10.0 mi SSE 6.9 mph - N/A   Clear
7:53 PM 72.0 °F 50.0 °F 46% 30.23 in 10.0 mi South 6.9 mph - N/A   Clear
8:53 PM 71.1 °F 51.1 °F 49% 30.25 in 10.0 mi SE 5.8 mph - N/A   Clear
9:53 PM 68.0 °F 50.0 °F 52% 30.25 in 10.0 mi SE 5.8 mph - N/A   Clear
10:53 PM 64.9 °F 51.1 °F 61% 30.25 in 10.0 mi East 3.5 mph - N/A   Clear
11:53 PM 64.0 °F 51.1 °F 63% 30.25 in 10.0 mi ENE 4.6 mph - N/A   Clear